RH
58 52 55 54 47 48 47 43 38 38 37 35 31 24 28 33 34 29 31 39 40 33 32 32 33 39 38 35 39 41 37 39 38 34 35 31 31 32 31 32 31 29 28 26
58 44 64 62 59 52 48 42 40 37 37 35 26 22 26 31 33 44 52 49 38 34 33 33 30 26 27 28 28 29 28 32 34 37 39 38 38 37 34 26 31 33 32 33
54 56 65 65 58 53 52 48 46 40 38 39 33 22 32 37 42 47 50 53 45 36 37 34 29 25 22 18 16 12 12 21 25 18 19 29 23 19 24 30 37 34 34 33
62 65 70 78 61 69 56 60 53 53 51 47 44 25 35 34 37 38 34 35 34 33 27 25 21 19 19 16 13 11 10 9 8 10 25 31 43 34 32 32 35 40 37 36
65 70 76 71 74 79 69 77 78 70 59 52 47 46 43 37 36 28 33 31 28 26 23 22 19 18 16 13 12 11 12 12 9 10 25 43 58 59 60 60 60 52 50 42
77 87 80 79 94 95 97 78 78 74 68 53 55 60 33 39 33 31 31 28 26 25 20 17 16 15 13 10 9 13 17 14 12 23 40 51 58 69 74 77 93 82 64 51
79 70 76 74 67 87 82 84 83 77 74 66 60 60 46 37 33 30 28 25 23 21 18 17 14 11 10 9 8 8 16 33 50 55 57 72 79 81 81 70 81 100 97 78
82 81 81 80 73 86 92 93 95 94 86 66 53 46 41 40 36 34 30 26 21 20 18 15 13 11 8 7 8 10 12 21 40 62 78 88 98 98 92 88 100 93 97 99
79 91 78 79 84 93 99 99 98 97 79 66 57 53 49 47 43 37 29 25 24 15 8 7 9 14 20 14 9 16 25 31 28 36 70 91 96 96 98 75 85 92 99 98
64 91 88 93 100 98 100 98 95 92 90 83 66 59 55 48 42 38 32 22 16 12 10 9 8 8 9 13 15 42 91 97 67 97 71 64 93 96 98 99 67 86 100 95
68 87 100 100 98 98 98 99 100 100 99 95 71 47 42 38 27 20 16 15 16 16 18 14 14 11 32 73 56 85 77 75 84 100 84 98 74 79 97 99 96 99 100 97
100 94 100 100 100 99 97 96 100 95 80 86 91 43 38 32 23 20 16 13 16 20 25 31 38 52 63 75 62 52 56 47 75 60 79 100 99 100 100 97 84 47 80 95
90 87 85 85 100 100 98 99 98 93 90 85 62 47 30 18 18 16 14 9 12 16 21 18 15 14 16 17 22 36 91 97 100 100 100 99 97 68 74 79 61 62 90 84
98 98 100 89 86 74 65 56 50 59 50 47 34 32 14 11 15 19 17 18 18 16 12 17 52 67 56 36 45 94 96 100 100 100 100 99 76 63 75 70 48 40 40 71
100 100 98 89 72 63 48 37 28 34 46 25 25 27 22 14 12 11 11 8 6 5 13 60 83 92 82 87 66 66 73 95 96 100 99 100 85 85 90 56 53 75 38 22
96 94 85 77 71 57 39 24 30 32 26 20 16 12 10 7 6 6 6 7 7 7 18 42 78 88 79 54 86 100 100 100 100 100 100 100 100 98 100 100 92 80 64 42
94 88 78 42 48 44 26 22 18 15 13 10 9 10 9 8 11 10 14 60 44 76 92 75 62 60 43 35 84 100 100 100 96 100 98 100 100 100 100 100 98 70 47 40
78 78 62 37 34 24 16 15 14 11 10 9 17 21 32 35 23 34 68 78 66 87 56 80 66 41 90 100 100 100 100 100 100 98 96 81 71 69 68 72 68 59 51 48
57 44 31 25 19 17 14 10 10 11 10 22 43 49 56 57 84 72 98 63 55 74 92 90 100 93 93 100 100 100 100 99 91 75 57 44 46 51 50 52 49 40 52 56
31 21 17 14 11 10 10 12 14 16 23 64 70 58 60 66 89 91 100 98 81 99 93 91 100 100 96 100 100 100 93 71 54 48 41 34 29 34 64 74 72 68 83 100
16 14 14 14 15 14 13 19 26 55 74 86 75 76 77 67 92 72 86 88 87 73 100 100 83 86 100 95 93 70 43 20 19 21 22 24 28 38 39 39 69 93 98 95
15 17 18 22 21 20 57 77 86 88 99 74 78 84 80 60 61 77 74 82 81 100 88 98 98 90 43 28 28 27 22 20 20 15 12 11 9 9 10 19 29 68 91 90
16 19 18 33 85 98 99 95 91 100 99 91 59 37 38 80 61 50 67 74 94 100 100 100 100 69 18 18 21 22 20 20 18 16 10 13 35 34 38 32 9 16 47 91
18 28 54 68 63 100 100 100 100 100 93 72 56 41 38 50 90 82 59 51 94 100 100 100 93 60 30 18 22 22 27 18 19 14 13 32 48 47 66 69 32 37 59 93
39 56 57 80 88 100 98 100 95 92 84 70 55 55 65 73 49 48 72 71 89 95 93 97 79 53 27 24 26 29 33 24 21 16 13 27 55 51 61 47 77 81 92 89
52 65 63 52 53 71 87 92 91 91 88 87 47 46 60 54 66 65 91 92 100 99 79 100 100 98 73 29 22 32 49 37 24 15 13 37 64 81 85 87 93 98 98 97
Wind_Speed
35 39 24 28 33 33 32 33 33 28 28 35 36 37 36 37 37 37 34 29 27 29 28 32 34 35 37 37 31 25 25 25 26 27 31 33 35 34 33 33 35 37 38 38
37 43 29 34 36 38 39 38 36 37 36 39 39 40 42 39 41 36 38 38 37 35 31 31 33 34 36 34 33 31 29 26 27 31 33 39 40 36 33 40 41 41 41 41
40 38 37 36 39 42 40 43 44 45 42 44 46 49 43 42 37 38 39 41 40 40 39 39 39 37 39 36 27 27 30 31 30 34 36 38 40 48 49 44 46 47 47 47
47 43 41 43 47 44 46 46 50 53 54 54 51 56 51 41 40 41 44 44 45 47 47 45 42 41 41 41 39 39 41 41 42 44 46 46 47 50 53 54 54 55 55 54
47 46 43 47 45 49 53 52 53 58 61 59 58 57 55 50 46 45 40 44 47 48 49 49 48 48 45 46 48 50 50 52 56 51 52 53 56 57 60 61 60 61 59 60
52 49 50 52 56 56 54 57 60 61 60 59 57 52 52 51 51 52 48 48 48 49 48 47 48 50 52 54 55 57 57 59 59 61 62 61 63 64 62 60 63 66 63 61
53 53 52 55 60 60 58 57 58 58 59 58 56 54 49 51 49 48 49 48 50 50 52 56 58 58 60 63 65 66 66 64 63 65 66 66 67 69 69 64 65 66 67 63
54 54 53 52 56 57 55 55 56 58 57 53 49 52 52 50 51 53 55 56 55 57 61 64 66 68 68 68 68 71 71 71 73 71 68 68 66 66 72 70 65 63 67 63
58 58 58 55 54 55 55 56 58 55 52 52 52 52 53 54 56 57 58 59 64 66 65 66 70 73 71 74 75 74 70 68 71 75 73 68 43 52 68 71 67 66 62 51
61 58 57 54 51 52 52 50 50 52 53 56 56 55 57 57 56 58 61 65 69 71 72 76 79 79 81 78 75 78 70 73 70 53 76 79 75 77 79 69 64 70 71 62
54 53 52 49 50 49 46 47 48 50 54 58 61 58 55 58 59 62 67 73 76 79 81 82 81 82 71 65 67 61 68 75 78 77 68 50 75 75 68 51 59 59 56 55
46 47 47 46 42 41 43 46 51 56 58 62 67 61 61 60 67 72 76 79 83 86 82 72 66 66 67 68 67 62 69 80 84 79 79 75 67 72 66 68 58 59 55 53
45 48 48 48 47 47 45 47 54 60 64 66 71 67 57 67 76 77 81 84 87 89 87 80 73 67 60 57 62 67 53 48 69 74 76 66 49 36 38 31 44 48 57 55
50 49 46 47 50 51 51 48 53 61 66 68 70 72 65 71 78 83 86 90 92 90 84 68 58 52 51 49 62 66 51 46 49 42 40 34 28 31 35 30 28 28 31 32
46 45 46 44 49 49 47 48 55 65 65 63 72 78 79 79 85 89 91 87 80 73 61 54 46 36 22 27 36 44 47 39 48 40 39 36 37 40 33 33 34 37 35 36
44 45 45 43 51 55 54 49 58 62 68 71 75 80 81 80 74 69 65 58 53 43 36 36 42 35 31 31 28 26 22 31 37 38 39 41 45 49 42 41 39 40 43 42
44 47 49 44 55 59 55 49 59 65 65 67 68 67 67 67 58 54 43 32 27 24 26 27 32 36 33 28 27 26 37 34 29 34 36 38 44 45 37 40 42 45 42 43
50 53 55 53 60 60 51 59 61 61 55 54 55 57 51 47 37 32 31 29 29 28 28 24 26 28 31 24 27 30 18 16 18 18 20 21 22 27 32 36 37 38 40 43
52 53 53 54 57 60 55 53 48 49 49 47 45 41 39 33 22 21 28 25 29 25 24 25 21 24 21 28 30 32 35 20 19 21 24 26 29 33 37 41 43 43 45 46
49 51 52 52 52 53 47 43 42 43 43 37 37 33 31 30 31 25 25 25 21 20 19 21 19 23 19 30 30 25 24 23 21 24 28 31 33 37 42 47 48 48 44 40
47 46 48 46 46 45 39 40 38 39 36 31 31 30 30 30 33 29 26 23 25 24 21 19 21 21 17 9 16 17 19 18 20 24 29 34 38 40 41 43 45 44 43 45
43 42 41 41 42 42 34 37 36 35 34 35 34 32 28 27 31 38 31 19 22 24 24 18 16 17 13 11 14 18 19 20 23 26 30 35 38 41 43 43 41 41 43 42
43 43 45 42 27 23 33 37 36 35 33 32 31 28 28 27 26 33 38 40 31 30 20 20 21 18 19 16 17 18 19 21 22 25 34 33 30 31 32 36 40 34 33 33
40 39 38 37 33 35 33 25 22 27 30 26 28 29 30 30 26 27 28 33 31 24 16 21 20 22 23 22 21 21 23 24 25 24 29 30 34 29 30 32 29 23 23 21
33 35 37 45 38 48 44 42 41 35 31 36 34 31 28 29 35 39 29 25 28 27 27 25 28 25 26 26 25 22 24 26 28 26 29 30 31 22 14 19 21 20 17 20
28 29 34 35 33 49 53 51 49 48 43 32 38 35 32 29 29 37 30 19 24 31 31 29 27 22 25 27 27 27 26 28 30 25 27 28 25 22 24 16 16 16 17 20
Wind_Direction
267 265 267 268 270 270 267 268 274 271 265 269 272 273 273 275 279 285 287 291 277 268 271 274 273 269 273 275 278 276 275 278 271 270 269 270 274 273 276 278 277 278 281 282
270 274 268 261 269 275 278 279 277 274 274 275 280 281 283 281 280 283 288 285 285 287 280 271 268 269 266 266 267 271 268 264 269 268 262 271 272 273 280 284 280 278 278 279
272 274 272 271 267 268 273 276 278 280 282 283 282 279 277 272 278 278 278 278 276 271 271 271 270 270 272 273 265 265 273 270 269 271 269 264 268 275 276 276 270 268 266 265
270 269 270 270 274 272 271 271 276 281 280 278 277 285 277 276 267 262 260 260 264 265 266 265 266 268 269 269 267 264 272 273 271 266 266 264 263 266 269 267 266 265 263 261
275 273 267 267 274 277 277 274 272 271 274 277 276 273 284 282 270 262 257 254 253 256 260 263 268 270 271 273 275 277 279 281 281 274 272 267 265 259 262 265 262 264 260 260
272 272 272 272 273 269 264 268 270 272 275 278 275 276 276 270 271 271 267 265 266 266 265 266 270 274 273 271 271 272 275 275 275 276 279 273 268 266 260 258 258 259 256 257
275 274 274 272 274 269 268 268 264 268 270 274 274 273 271 269 272 271 272 271 271 268 269 269 268 266 264 265 268 269 267 265 264 265 265 266 266 264 264 261 257 257 261 257
274 278 275 275 273 266 263 263 262 265 268 270 270 266 271 268 265 269 272 272 272 275 276 274 273 272 269 268 266 264 265 267 267 263 262 263 268 266 265 264 260 272 259 251
278 279 278 273 265 259 259 260 265 269 268 265 262 264 264 264 269 272 275 275 277 278 277 275 273 275 275 276 275 271 265 261 263 262 262 261 258 254 253 263 265 261 262 269
281 272 271 266 259 258 258 262 266 267 268 267 262 260 260 263 269 272 275 274 272 272 273 273 273 273 274 272 266 264 263 257 258 263 261 262 260 259 262 254 266 262 261 267
277 273 263 260 257 260 262 262 263 264 263 266 268 266 273 278 280 281 280 279 278 276 275 275 277 277 277 266 260 261 263 263 258 249 256 250 254 261 257 256 261 270 267 267
267 262 259 258 258 256 255 260 264 267 272 274 273 275 281 281 277 276 277 277 277 278 279 278 275 269 268 268 270 274 268 266 261 256 253 261 262 249 257 270 272 273 266 267
260 261 260 258 256 256 263 266 267 268 269 269 271 279 283 277 275 277 277 276 276 276 278 282 282 280 278 271 266 262 270 278 251 254 253 257 260 268 265 270 263 262 256 262
256 255 256 258 259 258 262 268 271 273 274 275 275 283 280 278 279 280 279 279 278 280 283 279 276 282 283 272 252 258 254 264 252 234 232 241 262 271 259 249 258 259 259 265
249 252 256 259 265 269 270 277 274 273 279 280 277 279 281 279 279 278 280 283 283 281 267 263 274 271 293 294 281 270 271 270 261 256 243 240 255 255 241 241 245 251 251 260
263 269 272 276 271 270 274 283 276 280 279 282 286 284 283 284 285 287 285 284 282 273 261 258 249 267 280 286 282 242 255 251 249 239 238 243 244 249 237 243 242 250 257 260
272 274 268 277 267 266 274 278 273 275 279 282 283 283 284 284 287 283 278 268 264 267 268 257 260 268 269 265 257 252 251 239 250 242 242 246 245 245 251 246 253 255 256 256
268 271 271 269 270 271 281 277 276 278 280 283 280 283 289 292 276 263 263 269 260 262 271 271 266 264 248 246 249 260 253 232 231 244 246 255 263 261 256 251 252 253 251 248
269 271 273 272 272 273 278 278 277 277 278 276 279 283 288 277 269 266 273 266 255 260 275 269 273 288 259 249 249 260 268 283 285 285 282 272 265 260 256 251 249 251 246 249
270 271 271 274 276 278 281 278 277 279 281 279 285 287 291 266 260 270 258 261 260 265 278 272 274 281 269 234 239 258 271 278 269 269 269 269 265 262 259 259 256 253 252 257
269 271 275 275 276 278 281 277 273 271 278 285 281 286 288 284 262 263 257 268 256 258 252 261 269 273 266 239 256 267 266 267 267 269 268 264 262 262 263 261 265 264 262 251
267 267 271 271 271 275 270 267 273 270 277 284 283 284 292 288 271 261 266 266 251 249 247 256 260 273 275 215 228 241 258 277 281 292 299 292 284 273 262 256 258 260 260 261
266 264 261 263 261 282 265 267 261 265 270 282 280 288 291 289 282 273 264 269 285 204 208 228 239 252 224 233 255 258 269 284 298 307 312 306 291 281 269 263 256 254 258 264
263 261 259 254 244 241 240 251 263 265 264 278 291 292 297 289 284 284 273 272 274 203 213 231 234 240 239 242 253 259 274 288 297 311 315 300 305 295 267 257 237 236 248 253
267 263 261 257 253 248 249 259 265 271 271 274 286 286 279 272 276 278 281 274 263 263 267 257 232 240 240 252 260 268 273 282 288 303 315 305 312 302 265 238 214 220 236 247
271 264 265 266 261 258 255 266 275 278 277 279 277 277 267 268 268 270 268 256 237 251 266 238 223 243 240 246 257 270 275 271 275 291 310 305 311 293 279 230 224 227 236 246